Weather Roundup
Issued by NWS Springfield, MO

Home | Current Version | Previous Version | Text Only | Print | Product List | Glossary On
Versions: 1 2 3 4 5 6 7 8 9 10 11 12 13 14 15 16 17 18 19 20 21 22 23 24 25 26 27 28 29 30 31 32 33 34 35 36 37 38 39 40 41 42 43 44 45 46 47 48 49 50
000
NZUS99 KSGF 302007
HRRSGF

HOURLY WEATHER
NATIONAL WEATHER SERVICE SPRINGFIELD MO
300 PM CDT MON MAY 30 2016

......SGF CWA......

CITY           SKY/WX    TMP DP  RH WIND       PRES   REMARKS
SPRINGFIELD    CLOUDY    72  59  63 W10       30.07R
JOPLIN         CLOUDY    69  68  96 VRB6      30.05F
WEST PLAINS    CLOUDY    82  62  50 SE9       30.05F
ROLLA          CLOUDY    81  62  52 S7        30.03S
BRANSON        CLOUDY    72  63  73 CALM      30.07F

......SURROUNDING SGF CWA......

CITY           SKY/WX    TMP DP  RH WIND       PRES   REMARKS
CHANUTE        CLOUDY    75  64  68 S7        30.02F
PARSONS        CLOUDY    74  65  73 CALM      30.03F
COFFEYVILLE    CLOUDY    75  67  76 SE12      30.02F
EMPORIA        CLOUDY    81  61  50 S12G23    29.99S
GROVE OK       CLOUDY    72  66  83 SE3       30.06F
ROGERS AR      LGT RAIN  68  63  84 S8        30.09R
SILOAM SPRINGS CLOUDY    68  59  73 E5        30.07F
HARRISON AR    CLOUDY    72  66  81 W3        30.07F
NEAR YELLVILLE PTSUNNY  N/A N/A N/A SE5       30.02F

......KANSAS AND MISSOURI......

CITY           SKY/WX    TMP DP  RH WIND       PRES   REMARKS
KANSAS CTY INT TSTM      68  62  81 S16G32    30.00R
DOWNTOWN KC    CLOUDY    74  58  57 S10       30.00R
COLUMBIA       CLOUDY    83  63  50 S7        30.02S
SEDALIA        CLOUDY    81  65  58 S8        30.02F
ST JOSEPH      PTSUNNY   85  64  49 S8        29.95F
ST LOUIS       CLOUDY    85  60  42 SE12      30.02F
SPIRIT OF STL  MOSUNNY   89  58  34 CALM      30.00F
KIRKSVILLE     CLOUDY    84  65  52 S9        30.01S
WICHITA        MOSUNNY   82  60  47 S9        29.96F
TOPEKA         MOSUNNY   83  64  52 S15       29.96F
OLATHE         LGT RAIN  69  64  84 SE15      30.03S

......TENNESSEE......

CITY           SKY/WX    TMP DP  RH WIND       PRES   REMARKS
MEMPHIS        MOSUNNY   89  62  40 VRB6      30.01F
NASHVILLE      MOSUNNY   86  54  33 N9        30.02F

......ARKANSAS.......

CITY           SKY/WX    TMP DP  RH WIND       PRES   REMARKS
FAYETTEVILLE   CLOUDY    67  64  90 CALM      30.07S
FT SMITH       CLOUDY    72  65  78 E5        30.01F
LITTLE ROCK    PTSUNNY   85  66  53 CALM      30.00F

......OKLAHOMA.......

CITY           SKY/WX    TMP DP  RH WIND       PRES   REMARKS
TULSA          CLOUDY    74  65  73 E12       29.98F
PONCA CITY     MOSUNNY   80  62  54 SE14G20   29.96F
MCALESTER      PTSUNNY   77  66  68 SE7       30.00F
OKLAHOMA CITY  PTSUNNY   80  65  59 VRB3      29.96F

......IOWA............

CITY           SKY/WX    TMP DP  RH WIND       PRES   REMARKS
DES MOINES     MOSUNNY   87  59  38 SW13      29.94F
QUAD CITIES    SUNNY     86  59  39 SW5       29.98F

......ILLINOIS........

CITY           SKY/WX    TMP DP  RH WIND       PRES   REMARKS
QUINCY         CLOUDY    84  62  47 S6        30.00F
CHICAGO        MOSUNNY   86  55  34 NW13      29.97F




USA.gov is the U.S. government's official web portal to all federal, state and local government web resources and services.